Edinburgh Airport, United Kingdom

7:47 PM GMT on November 24, 2017 (GMT +0000)
Edinburgh Airport

Weather History for EGPH - February, 2013

Change the Weather History Date:

Wednesday, February 13, 2013

  Actual Average Record
Temperature  
Mean Temperature 37 °F -  
Max Temperature 44 °F 46 °F 59 °F (1998)
Min Temperature 30 °F 33 °F 24 °F (2008)
Degree Days  
Heating Degree Days 28    
Moisture  
Dew Point 32 °F    
Average Humidity 83    
Maximum Humidity 93    
Minimum Humidity 70    
Precipitation  
Precipitation 0.00 in 0.06 in - ()
Sea Level Pressure  
Sea Level Pressure 29.79 in    
Wind  
Wind Speed 8 mph ()    
Max Wind Speed 28 mph    
Max Gust Speed 40 mph    
Visibility 5.2 miles    
Events Rain , Snow    
Averages and records for this station are not official NWS values.
T = Trace of Precipitation, MM = Missing Value Source: Averaged Metar Reports

Daily Weather History Graph

Daily Weather History Graph

Search for Another Location

Airport or City:

Trip Planner

Search our weather history database for the weather conditions in past years. The results will help you decide how hot, cold, wet, or windy it might be!

Date:

Astronomy

Feb. 13, 2013 Rise Set
Actual Time 7:42 AM GMT 5:13 PM GMT
Civil Twilight 7:03 AM GMT 5:52 PM GMT
Nautical Twilight 6:20 AM GMT 6:36 PM GMT
Astronomical Twilight 5:37 AM GMT 7:18 PM GMT
Moon 8:17 AM GMT (2/13) 9:54 PM GMT (2/13)
Length of Visible Light 10h 48m
Length of Day
9h 30m
Waxing Crescent, 12% of the Moon is Illuminated
Feb 13
Waxing Crescent
Feb 17
First Quarter
Feb 25
Full
Mar 4
Last Quarter
Mar 11
New

Hourly Weather History & Observations

Time (GMT) Temp. Windchill Dew Point Humidity Pressure Visibility Wind Dir Wind Speed Gust Speed Precip Events Conditions
12:20 AM 33.8 °F 28.6 °F 28.4 °F 81% 30.06 in 6.2 mi ESE 5.8 mph - N/A   Overcast
12:50 AM 32.0 °F 26.4 °F 26.6 °F 80% 30.06 in - ESE 5.8 mph - N/A   Clear
1:20 AM 30.2 °F 25.4 °F 26.6 °F 86% 30.06 in - ESE 4.6 mph - N/A   Clear
1:50 AM 30.2 °F 25.4 °F 26.6 °F 86% 30.06 in 6.2 mi SE 4.6 mph - N/A   Mostly Cloudy
2:20 AM 30.2 °F - 26.6 °F 86% 30.06 in 6.2 mi Variable 2.3 mph - N/A   Partly Cloudy
2:50 AM 32.0 °F 28.7 °F 26.6 °F 80% 30.04 in 6.2 mi Variable 3.5 mph - N/A   Mostly Cloudy
3:20 AM 33.8 °F 28.6 °F 26.6 °F 75% 30.04 in 6.2 mi South 5.8 mph - N/A   Overcast
3:50 AM 33.8 °F 26.4 °F 26.6 °F 75% 30.04 in 6.2 mi SSE 9.2 mph - N/A   Overcast
4:20 AM 35.6 °F 29.2 °F 26.6 °F 70% 30.01 in 6.2 mi South 8.1 mph - N/A   Overcast
4:50 AM 33.8 °F 27.0 °F 26.6 °F 75% 30.01 in 6.2 mi SSE 8.1 mph - N/A   Mostly Cloudy
5:20 AM 33.8 °F 27.7 °F 26.6 °F 75% 30.01 in 6.2 mi SSE 6.9 mph - N/A   Mostly Cloudy
5:50 AM 33.8 °F 29.6 °F 26.6 °F 75% 29.98 in 6.2 mi South 4.6 mph - N/A Snow Light Snow
6:20 AM 33.8 °F 27.0 °F 28.4 °F 81% 29.98 in 1.4 mi South 8.1 mph - N/A Snow Light Snow
6:50 AM 32.0 °F - 30.2 °F 93% 29.98 in 1.8 mi Variable 2.3 mph - N/A Snow Light Snow
7:20 AM 32.0 °F 28.7 °F 30.2 °F 93% 29.95 in 1.9 mi Variable 3.5 mph - N/A Snow Light Snow
7:50 AM 33.8 °F 28.6 °F 28.4 °F 81% 29.95 in 2.2 mi ESE 5.8 mph - N/A Rain , Snow Light Rain
8:20 AM 33.8 °F 27.7 °F 28.4 °F 81% 29.95 in 2.8 mi SE 6.9 mph - N/A Snow Light Snow
8:50 AM 33.8 °F 29.6 °F 28.4 °F 81% 29.92 in 2.8 mi SSE 4.6 mph - N/A   Haze
9:20 AM 33.8 °F 30.8 °F 28.4 °F 81% 29.92 in 2.8 mi Variable 3.5 mph - N/A   Haze
9:50 AM 33.8 °F 28.6 °F 30.2 °F 87% 29.92 in 3.1 mi ESE 5.8 mph - N/A Snow Light Snow
10:20 AM 33.8 °F 27.7 °F 30.2 °F 87% 29.89 in 3.7 mi ESE 6.9 mph - N/A   Mostly Cloudy
10:50 AM 33.8 °F 28.6 °F 30.2 °F 87% 29.89 in 3.7 mi SSE 5.8 mph - N/A   Overcast
11:20 AM 33.8 °F 27.7 °F 30.2 °F 87% 29.86 in 4.3 mi SSE 6.9 mph - N/A Snow Light Snow
11:50 AM 33.8 °F 25.3 °F 30.2 °F 87% 29.86 in 3.7 mi SSE 11.5 mph - N/A Snow Light Snow
12:20 PM 35.6 °F 29.9 °F 30.2 °F 81% 29.83 in 4.3 mi SSE 6.9 mph - N/A Rain Light Rain
12:50 PM 35.6 °F 30.7 °F 32.0 °F 87% 29.80 in 5.6 mi South 5.8 mph - N/A Rain Light Rain
1:20 PM 37.4 °F 33.8 °F 32.0 °F 81% 29.77 in 4.3 mi Variable 4.6 mph - N/A Rain Light Rain
1:50 PM 37.4 °F 32.8 °F 32.0 °F 81% 29.74 in 6.2 mi Variable 5.8 mph - N/A Rain Light Rain
2:20 PM 37.4 °F 32.1 °F 32.0 °F 81% 29.74 in 6.2 mi SSW 6.9 mph - N/A Rain Light Rain
2:50 PM 37.4 °F - 33.8 °F 87% 29.71 in 6.2 mi Variable 2.3 mph - N/A Rain Light Rain
3:20 PM 39.2 °F 33.0 °F 33.8 °F 81% 29.68 in 6.2 mi Variable 9.2 mph 20.7 mph N/A Rain Light Rain
3:50 PM 39.2 °F 35.9 °F 35.6 °F 87% 29.65 in 5.6 mi Variable 4.6 mph - N/A Rain Light Rain
4:20 PM 39.2 °F 37.0 °F 35.6 °F 87% 29.62 in 6.2 mi Variable 3.5 mph - N/A Rain Light Rain
4:50 PM 39.2 °F 33.0 °F 35.6 °F 87% 29.59 in 6.2 mi South 9.2 mph - N/A Rain Light Rain
5:20 PM 41.0 °F 30.5 °F 35.6 °F 81% 29.56 in 6.2 mi South 26.5 mph - N/A Rain Light Rain
5:50 PM 41.0 °F 30.2 °F 35.6 °F 81% 29.53 in 6.2 mi South 27.6 mph - N/A Rain Light Rain
6:20 PM 41.0 °F 30.2 °F 37.4 °F 87% 29.53 in 6.2 mi South 27.6 mph 40.3 mph N/A Rain Light Rain
6:50 PM 42.8 °F 32.9 °F 37.4 °F 81% 29.50 in 6.2 mi South 26.5 mph - N/A Rain Light Rain
7:20 PM 44.6 °F 35.5 °F 39.2 °F 81% 29.50 in 6.2 mi SSW 25.3 mph 40.3 mph N/A Rain Light Rain
7:50 PM 42.8 °F 33.5 °F 39.2 °F 87% 29.50 in 6.2 mi SSW 23.0 mph - N/A Rain Light Rain
8:20 PM 42.8 °F 33.1 °F 39.2 °F 87% 29.50 in 6.2 mi SSW 25.3 mph - N/A Rain Light Rain
8:50 PM 44.6 °F 36.1 °F 39.2 °F 81% 29.50 in 6.2 mi SSW 21.9 mph - N/A Rain Light Rain
9:20 PM 44.6 °F 36.4 °F 39.2 °F 81% 29.50 in 6.2 mi SSW 20.7 mph - N/A   Scattered Clouds
9:50 PM 44.6 °F 36.9 °F 41.0 °F 87% 29.53 in 6.2 mi SW 18.4 mph - N/A   Mostly Cloudy
10:20 PM 44.6 °F 36.9 °F 41.0 °F 87% 29.53 in 6.2 mi SW 18.4 mph - N/A   Scattered Clouds
10:50 PM 44.6 °F 38.4 °F 41.0 °F 87% 29.53 in 6.2 mi SW 12.7 mph - N/A   Partly Cloudy
11:20 PM 42.8 °F 35.8 °F 41.0 °F 93% 29.53 in 6.2 mi WSW 13.8 mph - N/A   Partly Cloudy
11:50 PM 42.8 °F 36.2 °F 41.0 °F 93% 29.53 in 6.2 mi SW 12.7 mph - N/A   Partly Cloudy